Location: Unspecified
(41.5000°N, 0.0000°E)
Time: 04:27:01
(UTC+00:00)

Vanguard 2 - Pass Details

Date: 26 June 2019
Orbit: 554 x 2938 km, 32.9° (Epoch: 21 August)

Event Time Altitude Azimuth Distance (km) Brightness Sun altitude
Rises 11:09:39 0° 265° (W) 3,595 10.9 68.7°
Reaches altitude 10° 11:12:05 10° 255° (WSW) 2,896 10.5 69.0°
Maximum altitude 11:18:28 33° 193° (SSW) 2,225 10.7 69.6°
Drops below altitude 10° 11:28:17 10° 136° (SE) 4,503 11.9 70.5°
Sets 11:33:09 0° 128° (SE) 5,900 12.3 70.8°
